Time,TemperatureF,DewpointF,PressureIn,WindDirection,WindDirectionDegrees,WindSpeedMPH,WindSpeedGustMPH,Humidity,HourlyPrecipIn,Conditions,Clouds,dailyrainin,SoftwareType,DateUTC
2013-01-12 00:01:00,59.1,57.0,29.89,SSE,167,2.0,9.0,94,0.00,,,0.11,weatherlink.com 1.10,2013-01-12 06:01:00,
2013-01-12 00:16:00,59.3,58.0,29.88,SSE,162,3.0,8.0,95,0.00,,,0.11,weatherlink.com 1.10,2013-01-12 06:16:00,
2013-01-12 00:31:00,59.6,58.0,29.89,SSE,159,1.0,10.0,95,0.00,,,0.11,weatherlink.com 1.10,2013-01-12 06:31:00,
2013-01-12 00:46:00,59.9,59.0,29.88,South,176,2.0,9.0,95,0.00,,,0.11,weatherlink.com 1.10,2013-01-12 06:46:00,
2013-01-12 01:01:00,60.2,59.0,29.89,SSW,207,4.0,9.0,95,0.00,,,0.11,weatherlink.com 1.10,2013-01-12 07:01:00,
2013-01-12 01:16:00,60.2,59.0,29.89,South,189,1.0,6.0,95,0.00,,,0.11,weatherlink.com 1.10,2013-01-12 07:16:00,
2013-01-12 01:31:00,60.7,60.0,29.89,SW,215,3.0,7.0,96,0.00,,,0.00,weatherlink.com 1.10,2013-01-12 07:31:00,
2013-01-12 01:46:00,61.5,60.0,29.89,SSW,196,4.0,10.0,96,0.00,,,0.00,weatherlink.com 1.10,2013-01-12 07:46:00,
2013-01-12 02:02:00,62.1,61.0,29.89,South,190,4.0,12.0,95,0.00,,,0.00,weatherlink.com 1.10,2013-01-12 08:02:00,
2013-01-12 02:17:00,62.1,61.0,29.89,SSW,211,6.0,8.0,95,0.01,,,0.01,weatherlink.com 1.10,2013-01-12 08:17:00,
2013-01-12 02:32:00,62.3,61.0,29.89,South,182,3.0,6.0,95,0.01,,,0.01,weatherlink.com 1.10,2013-01-12 08:32:00,
2013-01-12 02:47:00,62.2,61.0,29.89,SW,221,3.0,5.0,95,0.01,,,0.01,weatherlink.com 1.10,2013-01-12 08:47:00,
2013-01-12 03:02:00,62.1,61.0,29.89,SSW,213,4.0,7.0,95,0.01,,,0.01,weatherlink.com 1.10,2013-01-12 09:02:00,
2013-01-12 03:17:00,62.3,61.0,29.89,South,174,3.0,6.0,96,0.00,,,0.01,weatherlink.com 1.10,2013-01-12 09:17:00,
2013-01-12 03:32:00,62.4,61.0,29.89,South,175,0.0,3.0,96,0.00,,,0.01,weatherlink.com 1.10,2013-01-12 09:32:00,
2013-01-12 03:47:00,62.6,62.0,29.89,SSW,213,1.0,5.0,96,0.00,,,0.01,weatherlink.com 1.10,2013-01-12 09:47:00,
2013-01-12 04:02:00,62.7,62.0,29.89,SSE,168,1.0,4.0,96,0.00,,,0.01,weatherlink.com 1.10,2013-01-12 10:02:00,
2013-01-12 04:17:00,62.8,62.0,29.89,South,179,0.0,3.0,96,0.00,,,0.01,weatherlink.com 1.10,2013-01-12 10:17:00,
2013-01-12 04:32:00,62.9,62.0,29.89,SSW,210,0.0,5.0,96,0.00,,,0.01,weatherlink.com 1.10,2013-01-12 10:32:00,
2013-01-12 04:47:00,63.0,62.0,29.89,South,169,1.0,4.0,96,0.00,,,0.01,weatherlink.com 1.10,2013-01-12 10:47:00,
2013-01-12 05:02:00,62.8,62.0,29.89,SSW,200,0.0,4.0,96,0.00,,,0.01,weatherlink.com 1.10,2013-01-12 11:02:00,
2013-01-12 05:17:00,62.7,62.0,29.89,SSE,164,0.0,5.0,97,0.00,,,0.01,weatherlink.com 1.10,2013-01-12 11:17:00,
2013-01-12 05:32:00,62.2,61.0,29.89,SSW,209,0.0,3.0,97,0.00,,,0.01,weatherlink.com 1.10,2013-01-12 11:32:00,
2013-01-12 05:47:00,61.8,61.0,29.89,SSW,209,0.0,1.0,97,0.01,,,0.02,weatherlink.com 1.10,2013-01-12 11:47:00,
2013-01-12 06:02:00,61.2,60.0,29.89,SSW,209,0.0,1.0,97,0.01,,,0.02,weatherlink.com 1.10,2013-01-12 12:02:00,
2013-01-12 06:17:00,61.3,61.0,29.90,SSW,209,0.0,0.0,98,0.01,,,0.02,weatherlink.com 1.10,2013-01-12 12:17:00,
2013-01-12 06:32:00,61.7,61.0,29.90,SSW,209,0.0,1.0,98,0.01,,,0.02,weatherlink.com 1.10,2013-01-12 12:32:00,
2013-01-12 06:47:00,61.7,61.0,29.91,SSW,209,0.0,1.0,98,0.00,,,0.02,weatherlink.com 1.10,2013-01-12 12:47:00,
2013-01-12 07:17:00,61.9,61.0,29.91,SSW,209,0.0,1.0,98,0.00,,,0.02,weatherlink.com 1.10,2013-01-12 13:17:00,
2013-01-12 07:32:00,61.9,62.0,29.92,SSW,209,0.0,1.0,99,0.00,,,0.02,weatherlink.com 1.10,2013-01-12 13:32:00,
2013-01-12 07:47:00,62.0,62.0,29.90,SSW,209,0.0,1.0,99,0.00,,,0.02,weatherlink.com 1.10,2013-01-12 13:47:00,
2013-01-12 08:02:00,61.6,61.0,29.91,SSW,209,0.0,0.0,99,0.00,,,0.02,weatherlink.com 1.10,2013-01-12 14:02:00,
2013-01-12 08:17:00,61.4,61.0,29.91,SSW,209,0.0,0.0,99,0.00,,,0.02,weatherlink.com 1.10,2013-01-12 14:17:00,
2013-01-12 08:32:00,62.0,62.0,29.91,SSW,209,0.0,1.0,99,0.00,,,0.02,weatherlink.com 1.10,2013-01-12 14:32:00,
2013-01-12 08:47:00,63.5,63.0,29.91,SSE,166,3.0,3.0,99,0.00,,,0.02,weatherlink.com 1.10,2013-01-12 14:47:00,
2013-01-12 09:02:00,64.9,65.0,29.90,South,174,1.0,3.0,99,0.00,,,0.02,weatherlink.com 1.10,2013-01-12 15:02:00,
2013-01-12 09:17:00,65.2,65.0,29.90,SSE,159,2.0,4.0,99,0.01,,,0.03,weatherlink.com 1.10,2013-01-12 15:17:00,
2013-01-12 09:32:00,65.8,66.0,29.90,South,169,3.0,5.0,99,0.01,,,0.03,weatherlink.com 1.10,2013-01-12 15:32:00,
2013-01-12 09:47:00,66.2,66.0,29.91,SW,219,3.0,7.0,99,0.01,,,0.03,weatherlink.com 1.10,2013-01-12 15:47:00,
2013-01-12 10:02:00,66.9,66.0,29.90,South,180,2.0,7.0,98,0.01,,,0.03,weatherlink.com 1.10,2013-01-12 16:02:00,
2013-01-12 10:17:00,67.1,66.0,29.90,South,171,4.0,8.0,97,0.00,,,0.03,weatherlink.com 1.10,2013-01-12 16:17:00,
2013-01-12 10:32:00,67.0,66.0,29.90,SSE,156,2.0,3.0,96,0.00,,,0.03,weatherlink.com 1.10,2013-01-12 16:32:00,
2013-01-12 10:47:00,67.2,66.0,29.89,SSE,148,2.0,5.0,96,0.00,,,0.03,weatherlink.com 1.10,2013-01-12 16:47:00,
2013-01-12 11:02:00,67.7,67.0,29.88,SSE,157,1.0,6.0,96,0.00,,,0.03,weatherlink.com 1.10,2013-01-12 17:02:00,
2013-01-12 11:17:00,68.6,67.0,29.88,SSE,166,3.0,8.0,94,0.00,,,0.03,weatherlink.com 1.10,2013-01-12 17:17:00,
2013-01-12 11:32:00,68.9,67.0,29.86,SSW,193,5.0,8.0,92,0.00,,,0.03,weatherlink.com 1.10,2013-01-12 17:32:00,
2013-01-12 11:47:00,68.8,66.0,29.86,SE,142,4.0,10.0,91,0.01,,,0.04,weatherlink.com 1.10,2013-01-12 17:47:00,
2013-01-12 12:02:00,68.5,66.0,29.85,SSE,157,1.0,7.0,92,0.01,,,0.04,weatherlink.com 1.10,2013-01-12 18:02:00,
2013-01-12 12:18:00,68.9,67.0,29.84,SSE,153,0.0,4.0,92,0.01,,,0.04,weatherlink.com 1.10,2013-01-12 18:18:00,
2013-01-12 12:33:00,69.2,67.0,29.82,SSE,167,4.0,7.0,92,0.00,,,0.04,weatherlink.com 1.10,2013-01-12 18:33:00,
2013-01-12 12:48:00,68.4,66.0,29.81,West,261,2.0,8.0,92,0.00,,,0.04,weatherlink.com 1.10,2013-01-12 18:48:00,
2013-01-12 13:03:00,67.9,66.0,29.81,SSE,157,2.0,7.0,94,0.00,,,0.04,weatherlink.com 1.10,2013-01-12 19:03:00,
2013-01-12 13:18:00,67.6,66.0,29.79,SE,128,3.0,9.0,95,0.00,,,0.04,weatherlink.com 1.10,2013-01-12 19:18:00,
2013-01-12 13:33:00,67.6,66.0,29.79,SE,140,6.0,8.0,94,0.00,,,0.04,weatherlink.com 1.10,2013-01-12 19:33:00,
2013-01-12 13:48:00,67.3,66.0,29.79,SSE,149,3.0,12.0,94,0.00,,,0.04,weatherlink.com 1.10,2013-01-12 19:48:00,
2013-01-12 14:03:00,67.2,66.0,29.78,SSW,197,5.0,7.0,94,0.00,,,0.04,weatherlink.com 1.10,2013-01-12 20:03:00,
2013-01-12 14:18:00,67.2,66.0,29.78,SSW,211,1.0,11.0,94,0.00,,,0.04,weatherlink.com 1.10,2013-01-12 20:18:00,
2013-01-12 14:33:00,67.9,66.0,29.77,SSE,156,7.0,9.0,93,0.00,,,0.04,weatherlink.com 1.10,2013-01-12 20:33:00,
2013-01-12 14:48:00,68.3,66.0,29.78,SSW,192,2.0,10.0,91,0.01,,,0.05,weatherlink.com 1.10,2013-01-12 20:48:00,
2013-01-12 15:03:00,68.5,66.0,29.77,SSE,155,3.0,12.0,90,0.01,,,0.05,weatherlink.com 1.10,2013-01-12 21:03:00,
2013-01-12 15:18:00,68.2,65.0,29.77,SW,221,5.0,16.0,90,0.01,,,0.05,weatherlink.com 1.10,2013-01-12 21:18:00,
2013-01-12 15:33:00,68.1,65.0,29.77,SSE,167,2.0,8.0,90,0.01,,,0.05,weatherlink.com 1.10,2013-01-12 21:33:00,
2013-01-12 15:48:00,68.2,65.0,29.77,SE,140,5.0,12.0,90,0.00,,,0.05,weatherlink.com 1.10,2013-01-12 21:48:00,
2013-01-12 16:03:00,68.0,65.0,29.77,SSE,152,2.0,7.0,91,0.00,,,0.05,weatherlink.com 1.10,2013-01-12 22:03:00,
2013-01-12 16:18:00,68.1,65.0,29.76,SSE,149,7.0,10.0,91,0.00,,,0.05,weatherlink.com 1.10,2013-01-12 22:18:00,
2013-01-12 16:33:00,68.3,65.0,29.75,South,190,3.0,12.0,90,0.00,,,0.05,weatherlink.com 1.10,2013-01-12 22:33:00,
2013-01-12 16:48:00,68.5,66.0,29.75,SSE,159,3.0,11.0,90,0.00,,,0.05,weatherlink.com 1.10,2013-01-12 22:48:00,
2013-01-12 17:03:00,68.2,65.0,29.75,SE,135,3.0,11.0,90,0.00,,,0.05,weatherlink.com 1.10,2013-01-12 23:03:00,
2013-01-12 17:18:00,67.9,65.0,29.75,South,190,1.0,8.0,91,0.00,,,0.05,weatherlink.com 1.10,2013-01-12 23:18:00,
2013-01-12 17:33:00,67.9,65.0,29.75,SE,136,5.0,10.0,91,0.00,,,0.05,weatherlink.com 1.10,2013-01-12 23:33:00,
2013-01-12 17:48:00,68.2,65.0,29.74,SSE,150,7.0,12.0,90,0.01,,,0.06,weatherlink.com 1.10,2013-01-12 23:48:00,
2013-01-12 18:03:00,68.4,65.0,29.73,SSE,158,5.0,11.0,90,0.01,,,0.06,weatherlink.com 1.10,2013-01-13 00:03:00,
2013-01-12 18:18:00,68.2,65.0,29.74,SSE,154,6.0,9.0,90,0.01,,,0.06,weatherlink.com 1.10,2013-01-13 00:18:00,
2013-01-12 18:33:00,68.1,65.0,29.74,SSE,151,6.0,7.0,90,0.01,,,0.06,weatherlink.com 1.10,2013-01-13 00:33:00,
2013-01-12 18:48:00,67.8,65.0,29.74,SSE,163,2.0,8.0,90,0.00,,,0.06,weatherlink.com 1.10,2013-01-13 00:48:00,
2013-01-12 19:03:00,67.8,65.0,29.74,SSE,155,1.0,8.0,90,0.00,,,0.06,weatherlink.com 1.10,2013-01-13 01:03:00,
2013-01-12 19:18:00,67.7,65.0,29.74,SSW,201,0.0,7.0,90,0.00,,,0.06,weatherlink.com 1.10,2013-01-13 01:18:00,
2013-01-12 19:33:00,67.9,65.0,29.73,SE,136,1.0,7.0,90,0.00,,,0.06,weatherlink.com 1.10,2013-01-13 01:33:00,
2013-01-12 19:48:00,67.9,65.0,29.73,SSE,168,5.0,6.0,90,0.00,,,0.06,weatherlink.com 1.10,2013-01-13 01:48:00,
2013-01-12 20:03:00,67.8,65.0,29.73,SSE,163,3.0,8.0,90,0.00,,,0.06,weatherlink.com 1.10,2013-01-13 02:03:00,
2013-01-12 20:18:00,68.1,65.0,29.72,SSE,165,4.0,10.0,89,0.00,,,0.06,weatherlink.com 1.10,2013-01-13 02:18:00,
2013-01-12 20:33:00,68.2,65.0,29.71,SE,126,1.0,9.0,89,0.00,,,0.06,weatherlink.com 1.10,2013-01-13 02:33:00,
2013-01-12 20:48:00,68.5,65.0,29.71,SSE,161,3.0,14.0,89,0.00,,,0.06,weatherlink.com 1.10,2013-01-13 02:48:00,
2013-01-12 21:03:00,68.8,65.0,29.71,South,172,3.0,10.0,88,0.00,,,0.06,weatherlink.com 1.10,2013-01-13 03:03:00,
2013-01-12 21:18:00,68.8,65.0,29.70,SSW,203,4.0,11.0,88,0.00,,,0.06,weatherlink.com 1.10,2013-01-13 03:18:00,
2013-01-12 21:33:00,69.2,66.0,29.70,SSE,149,7.0,12.0,88,0.00,,,0.06,weatherlink.com 1.10,2013-01-13 03:33:00,
2013-01-12 21:48:00,69.4,65.0,29.70,South,183,6.0,17.0,87,0.01,,,0.07,weatherlink.com 1.10,2013-01-13 03:48:00,
2013-01-12 22:03:00,69.5,66.0,29.69,South,180,7.0,18.0,87,0.01,,,0.07,weatherlink.com 1.10,2013-01-13 04:03:00,
2013-01-12 22:18:00,69.4,65.0,29.69,WSW,242,8.0,13.0,87,0.01,,,0.07,weatherlink.com 1.10,2013-01-13 04:18:00,
2013-01-12 22:33:00,69.2,65.0,29.68,SSE,153,4.0,19.0,87,0.01,,,0.07,weatherlink.com 1.10,2013-01-13 04:33:00,
2013-01-12 22:48:00,69.4,65.0,29.67,SE,138,4.0,22.0,87,0.00,,,0.07,weatherlink.com 1.10,2013-01-13 04:48:00,
2013-01-12 23:03:00,69.5,65.0,29.66,South,178,7.0,21.0,86,0.00,,,0.07,weatherlink.com 1.10,2013-01-13 05:03:00,
2013-01-12 23:18:00,69.5,65.0,29.66,South,183,5.0,15.0,86,0.00,,,0.07,weatherlink.com 1.10,2013-01-13 05:18:00,
2013-01-12 23:33:00,69.5,65.0,29.66,SW,221,12.0,16.0,86,0.00,,,0.07,weatherlink.com 1.10,2013-01-13 05:33:00,
2013-01-12 23:48:00,69.4,65.0,29.66,SW,222,8.0,17.0,86,0.00,,,0.07,weatherlink.com 1.10,2013-01-13 05:48:00,